Regional Weather Roundup
Issued by NWS Bismarck, ND

Current Version |  Previous Version |  Text Only |  Print | Product List |  Glossary On
Versions: 1 2 3 4 5 6 7 8 9 10 11 12 13 14 15 16 17 18 19 20 21 22 23 24 25 26 27 28 29 30 31 32 33 34 35 36 37 38 39 40 41 42 43 44 45 46 47 48 49 50
023
ASUS43 KBIS 221402
RWRBIS

NWR BROADCAST TEXT
NATIONAL WEATHER SERVICE BISMARCK ND
900 AM CDT SAT JUN 22 2024

NOTE: "FAIR" INDICATES FEW OR NO CLOUDS BELOW 12,000 FEET WITH NO
SIGNIFICANT WEATHER AND/OR OBSTRUCTIONS TO VISIBILITY.


CITY           SKY/WX    TMP DP  RH WIND       PRES   REMARKS
WILLISTON      CLOUDY    63  59  87 CALM      29.97R
MINOT          LGT RAIN  62  58  86 CALM      29.94S
MINOT AFB      CLOUDY    62  59  88 NE3       29.91F
BISMARCK       NOT AVBL
DICKINSON      FOG       62  61  96 NE7       29.94R VSB 1/2
GARRISON       NOT AVBL
HETTINGER ARPT NOT AVBL
JAMESTOWN      CLOUDY    64  63  96 E8        29.91S FOG
CARRINGTON     CLOUDY    64  64 100 E7        29.92F FOG
HAZEN          DRIZZLE   63  63 100 CALM      29.95S
MANDAN         CLOUDY    63  63 100 CALM      29.94S FOG
OAKES          LGT RAIN  63  63 100 NE6       29.92R
STANLEY        CLOUDY    61  61 100 CALM      29.96F
TIOGA          CLOUDY    61  61 100 CALM      29.97S
WATFORD CITY   CLOUDY    63  63 100 CALM      29.96S
$$

CITY           SKY/WX    TMP DP  RH WIND       PRES   REMARKS
GRAND FORKS    CLOUDY    68  57  68 CALM      29.91F
GRAND FORKS AF CLOUDY    66  60  81 SE5       29.89F
DEVILS LAKE    PTSUNNY   66  60  81 E7        29.95R
FARGO          CLOUDY    68  63  84 E5        29.89F
CANDO          CLOUDY    64  64 100 E6        29.96F
CAVALIER       PTSUNNY   66  66 100 CALM      29.94R
GRAFTON        CLOUDY    66  61  82 E6        29.93F
GWINNER        CLOUDY    64  64 100 NE7       29.90S
ROLLA          CLOUDY    63  61  94 CALM      29.95F
WALHALLA       PTSUNNY   66  64  94 CALM      29.94F
$$

CITY           SKY/WX    TMP DP  RH WIND       PRES   REMARKS
ABERDEEN       RAIN      67  65  93 N7        29.89F FOG
MOBRIDGE       CLOUDY    66  64  93 SE3       29.88F
BUFFALO          N/A     63  56  78 W13       29.96R
RAPID CITY     SUNNY     68  56  65 NW16      30.01S
GLASGOW        FOG       60  58  92 CALM      29.97R VSB 1/4
SIDNEY         CLOUDY    65  62  90 NE3       29.96R
WOLF POINT     FOG       59  59 100 E3        29.98R VSB 1/2
GLENDIVE       CLOUDY    64  62  93 CALM      29.98R
MILES CITY     SUNNY     63  55  75 W10       29.99R
BAKER          FOG       60  60 100 NW8       29.99R VSB<1/4
$$

CITY           SKY/WX    TMP DP  RH WIND       PRES   REMARKS
BILLINGS       MOSUNNY   63  51  65 S3        30.04S
GREAT FALLS    MOSUNNY   57  51  80 CALM      30.01S
$$